This is the latest recevied weather packets stored in our database for station/object WX1NWA. If no packets are shown the sender has not sent any weather packets the latest 1 day(s).
| Time | Temp. | Humidity | Pressure | Rain* | Wind** | Luminosity | Snow |
|---|---|---|---|---|---|---|---|
| 1778033771 | 7.78° C | 99% | 1012.1 hPa | 0 mm | - | 0 W/m² | - |
| 1778033468 | 7.78° C | 99% | 1012.1 hPa | 0 mm | - | 0 W/m² | - |
| 1778033165 | 7.78° C | 99% | 1012.1 hPa | 0 mm | - | 0 W/m² | - |
| 1778032560 | 8.33° C | 99% | 1011.7 hPa | 0 mm | - | 0 W/m² | - |
| 1778032256 | 8.33° C | 99% | 1011.7 hPa | 0 mm | - | 0 W/m² | - |
| 1778031954 | 8.33° C | 99% | 1010.8 hPa | 0 mm | - | 0 W/m² | - |
| 1778031649 | 8.33° C | 99% | 1011.1 hPa | 0 mm | - | 0 W/m² | - |
| 1778031348 | 8.33° C | 99% | 1011.1 hPa | 0 mm | - | 0 W/m² | - |
| 1778031044 | 8.33° C | 99% | 1010.8 hPa | 0 mm | - | 0 W/m² | - |
| 1778030135 | 8.89° C | 99% | 1011.6 hPa | 0 mm | - | 0 W/m² | - |
| 1778029831 | 8.89° C | 99% | 1011.2 hPa | 0 mm | - | 0 W/m² | - |
| 1778029531 | 8.89° C | 99% | 1011.4 hPa | 0 mm | - | 0 W/m² | - |
| 1778028924 | 8.89° C | 99% | 1010.9 hPa | 0 mm | - | 0 W/m² | - |
| 1778028014 | 8.89° C | 99% | 1010.2 hPa | 1.27 mm | - | 0 W/m² | - |
| 1778027710 | 8.89° C | 99% | 1010.4 hPa | 3.05 mm | - | 0 W/m² | - |
| 1778027406 | 9.44° C | 99% | 1010.2 hPa | 3.05 mm | - | 0 W/m² | - |
| 1778026798 | 9.44° C | 99% | 1009.9 hPa | 0 mm | - | 0 W/m² | - |
| 1778026192 | 10° C | 99% | 1009.6 hPa | 0 mm | - | 3 W/m² | - |
| 1778024375 | 11.11° C | 99% | 1009.6 hPa | 0 mm | - | 5 W/m² | - |
| 1778024073 | 11.11° C | 99% | 1010.2 hPa | 0 mm | - | 6 W/m² | - |
| 1778022862 | 11.67° C | 99% | 1009.5 hPa | 0 mm | - | 10 W/m² | - |
| 1778021954 | 11.67° C | 99% | 1009.7 hPa | 0 mm | - | 13 W/m² | - |
| 1778021352 | 12.22° C | 99% | 1009.3 hPa | 0 mm | - | 13 W/m² | - |
| 1778018623 | 12.78° C | 99% | 1009.5 hPa | 0 mm | - | 19 W/m² | - |
| 1778017717 | 13.33° C | 99% | 1008.8 hPa | 0 mm | - | 23 W/m² | - |
* Rain latest hour (hover to see other rain measurements)
** Current wind speed in m/s (hover to see current wind gust speed)